{"data":{"norad_id":58729,"intl_designator":"2024-005B","name":"STARLINK-31115","alt_names":[],"object_type":"PAYLOAD","status":"ACTIVE","operator":null,"country":"US","launch_date":"2024-01-07","launch_site_code":"AFETR","launch_vehicle":null,"mission":null,"orbit_class":"UNKNOWN","rcs_meters":null,"size_class":null,"mass_kg":null,"dimensions":null,"purposes":["comms"],"wikipedia_slug":null,"has_3d_model":false,"image_url":null,"decayed_at":null,"tle_current":{"epoch":"2026-09-20T04:19:11.891136Z","epoch_age_seconds":177371,"freshness":"STALE","line1":"1 58729U 24005B   26263.17999874  .00000197  00000+0  16667-4 0  9991","line2":"2 58729  43.0014 201.7749 0001242 275.3106  84.7604 15.27574267150177","mean_motion":15.27574267,"eccentricity":0.0001242,"inclination_deg":43.0014,"raan_deg":201.7749,"arg_perigee_deg":275.3106,"mean_anomaly_deg":84.7604,"bstar":1.6667e-5,"rev_number":15017,"period_min":94.26710249761,"perigee_km":482.21410131254,"apogee_km":483.91842420301,"semimajor_km":6861.2032627578,"source":"CELESTRAK","updated_at":"2026-09-21T09:00:33.951459Z"}}}